Vertical_Velocity
-1 -0 -1 1 2 -3 -4 0 1 -2 -3 0 -1 -3 0 -1 -2 -1 -0 -2 -2 -1 -0 -1 2 -1 -4 -2 -2 -4 -2 -4 -5 -10 4 -1 -2 -3
-1 1 2 -1 -0 4 1 0 6 2 0 3 1 3 1 -1 -1 0 -1 -0 0 2 -0 -2 1 -4 -2 -1 -1 -3 -1 -2 -2 -3 -6 -3 -1 -0
-3 -2 0 3 3 7 3 5 -5 -2 -3 0 2 -2 -2 -1 -2 2 -1 -1 -2 -1 -2 -2 2 3 3 2 2 1 -1 -0 -4 -0 -5 1 -1 -3
-2 -3 -3 -1 -1 -1 -3 1 4 0 0 -3 -1 -3 -0 -1 -4 -7 -3 2 1 -2 2 -1 -1 -0 -1 -2 -2 -2 -1 -1 -0 1 1 4 -3 1
-2 -1 -1 0 0 -0 -1 1 0 1 1 -2 -6 -3 -6 -0 -8 -1 -3 -4 1 1 -0 -1 -3 1 2 -1 -0 -2 0 -5 -2 -2 2 1 -1 -2
-1 2 2 1 3 -1 -1 0 1 -2 -0 -3 -4 -6 -0 -2 -2 -4 -8 -3 -8 -1 2 1 0 -2 -6 -4 -2 -2 -3 -1 -2 -1 -3 -1 -1 -4
3 1 -1 2 1 -1 2 1 0 -1 -2 -3 -2 -3 -2 -4 -1 -1 -2 -1 -10 -0 -7 -1 -4 1 3 0 -3 -1 1 -0 -1 -2 2 -2 -2 -1
-3 -0 -5 -2 2 2 2 1 -0 -3 -1 -3 -2 -1 1 -1 -1 -3 -1 -4 -17 -1 -5 -9 3 -2 1 -1 0 0 -2 -1 -0 -1 1 0 5 3
-1 -0 1 3 2 3 2 0 -0 1 2 -1 -0 2 -3 1 2 -4 -1 4 -1 -3 3 -17 6 -6 2 -1 2 -1 -1 -0 -1 -1 0 1 -2 1
1 -0 -1 -0 2 3 1 0 2 2 -0 -1 -2 -2 -1 -1 1 2 3 1 -2 -7 6 -12 4 -6 -5 0 3 0 -2 -1 -1 -1 -3 -2 -2 -1
-0 -1 -0 1 2 2 1 -0 -2 1 -1 0 0 0 0 1 2 1 -3 -1 -6 -9 -1 -1 -6 -10 -1 -6 -1 -3 -1 -1 1 -2 -4 -4 -4 -2
2 -0 1 0 -0 0 -1 -0 -1 0 -1 1 3 2 1 -0 0 2 1 1 0 -8 0 2 -3 9 -13 -7 -6 1 1 3 -5 -4 -3 -2 -2 -1
-1 -1 2 -0 -1 -0 1 0 -0 -0 1 -2 -0 1 1 -0 -0 1 3 3 -1 -2 3 8 -7 -0 14 -6 -7 2 0 2 3 -1 1 1 -3 0
-2 -1 2 0 -1 -0 -0 -1 0 -0 -2 -0 0 -0 -2 -1 -1 -1 -1 0 4 0 -0 3 6 8 16 -3 -4 -3 6 1 16 3 2 -0 -1 2
-1 1 2 2 -0 -3 1 -0 -0 -0 -0 -1 -0 -2 -2 -0 0 -1 0 2 0 2 1 1 1 -0 4 3 -1 -2 -7 -10 -2 -1 1 1 0 1
0 0 1 4 2 0 -0 2 -0 -0 1 -1 -2 -2 -2 -0 -0 -1 -2 -3 -4 -4 3 1 1 1 -3 2 -1 -4 2 -1 -4 -3 1 0 0 2
1 -0 -2 5 -0 -0 -1 1 1 -0 -0 1 -1 -1 1 0 0 -0 -0 -1 1 -3 -7 -2 2 1 1 -1 0 1 -3 1 1 -1 -1 -1 -1 1
-1 -2 -2 0 -1 -2 -0 0 1 -0 0 -0 -1 1 1 -0 -1 -1 0 0 -1 -1 -2 -2 -4 -2 -1 -0 1 -1 1 6 7 0 -1 0 -2 -1
4 -3 -2 0 0 1 1 1 -2 1 2 0 0 1 0 1 -0 -1 -0 0 -1 -1 1 0 -2 -1 -3 -1 2 -1 1 0 -0 -1 -1 -1 1 6
-1 0 -3 -0 1 0 1 -1 -1 -1 -1 1 0 1 0 -1 -1 -1 -0 -0 -1 -2 -2 1 -0 1 2 -1 -2 2 -0 -4 -1 0 -0 2 1 -0
1 1 1 0 -0 1 -1 -1 0 -1 -1 -0 0 2 1 0 -1 -1 -1 0 0 -0 -1 -0 -0 2 1 1 -1 2 1 1 1 0 1 3 2 -1
1 1 -0 1 1 0 0 -1 -1 0 0 -1 2 1 1 1 -2 -1 -1 -2 0 -0 -1 -1 0 5 1 5 3 2 1 0 -1 -1 1 2 1 -1
-0 11 1 -1 2 2 1 -1 -0 -2 0 1 2 1 1 -1 -1 -1 -1 -1 -0 -0 -1 0 -0 -1 -2 -4 1 1 0 -1 -1 0 -0 0 2 2
Height
1526 1524 1521 1520 1517 1515 1513 1511 1509 1506 1502 1502 1502 1501 1500 1499 1497 1495 1492 1490 1487 1485 1482 1480 1478 1475 1474 1472 1471 1470 1469 1468 1468 1467 1466 1465 1464 1463
1521 1518 1516 1514 1513 1510 1508 1507 1504 1503 1501 1499 1497 1495 1493 1491 1489 1487 1483 1481 1478 1475 1473 1471 1468 1466 1464 1462 1461 1460 1459 1458 1458 1458 1458 1456 1456 1455
1516 1512 1510 1508 1507 1506 1504 1503 1501 1498 1497 1494 1491 1489 1485 1482 1479 1476 1473 1470 1468 1466 1463 1461 1459 1458 1456 1454 1452 1450 1449 1448 1448 1448 1448 1448 1448 1447
1510 1507 1506 1505 1503 1501 1500 1499 1498 1495 1493 1489 1484 1482 1478 1475 1471 1467 1464 1462 1460 1458 1456 1453 1452 1450 1449 1447 1445 1443 1441 1440 1439 1439 1439 1440 1438 1437
1506 1504 1502 1500 1499 1497 1496 1495 1493 1491 1488 1484 1478 1476 1472 1468 1463 1460 1458 1455 1453 1451 1448 1446 1444 1442 1440 1438 1436 1434 1433 1432 1432 1431 1430 1430 1429 1428
1501 1500 1498 1496 1494 1493 1492 1490 1488 1485 1482 1479 1474 1470 1466 1462 1458 1455 1450 1449 1446 1444 1441 1438 1435 1432 1431 1430 1428 1426 1425 1424 1423 1422 1422 1422 1421 1421
1496 1494 1492 1491 1489 1488 1487 1484 1482 1480 1477 1473 1468 1463 1459 1456 1454 1450 1447 1443 1439 1436 1432 1430 1428 1425 1423 1421 1419 1417 1416 1416 1415 1414 1414 1414 1413 1413
1489 1487 1486 1485 1484 1483 1481 1479 1477 1474 1471 1467 1463 1458 1454 1452 1450 1446 1442 1437 1432 1430 1427 1422 1423 1419 1417 1415 1412 1409 1408 1408 1407 1407 1406 1406 1405 1405
1483 1482 1481 1481 1479 1478 1476 1474 1472 1470 1467 1463 1458 1454 1450 1448 1445 1441 1438 1435 1431 1428 1424 1418 1417 1413 1411 1408 1406 1403 1401 1400 1399 1399 1399 1399 1399 1399
1479 1478 1477 1476 1474 1472 1470 1469 1467 1465 1462 1458 1454 1450 1447 1444 1442 1439 1435 1431 1427 1424 1422 1413 1412 1408 1405 1403 1401 1397 1395 1393 1392 1391 1391 1391 1392 1393
1474 1473 1472 1470 1468 1467 1465 1464 1461 1460 1456 1453 1450 1447 1444 1441 1438 1434 1431 1427 1422 1419 1417 1412 1408 1403 1399 1396 1395 1393 1391 1388 1386 1384 1383 1384 1385 1386
1468 1467 1466 1464 1462 1461 1460 1458 1456 1454 1451 1448 1446 1444 1440 1437 1434 1431 1427 1423 1419 1414 1413 1410 1403 1401 1393 1390 1389 1388 1385 1382 1378 1374 1373 1376 1378 1379
1462 1461 1460 1458 1457 1455 1454 1453 1450 1448 1446 1444 1441 1438 1436 1433 1429 1426 1423 1420 1415 1411 1410 1407 1400 1395 1393 1387 1382 1382 1379 1375 1369 1365 1367 1371 1373 1374
1456 1455 1454 1452 1451 1450 1449 1447 1446 1444 1442 1439 1436 1434 1431 1428 1424 1421 1417 1414 1412 1408 1405 1404 1398 1394 1390 1385 1381 1378 1376 1370 1363 1365 1367 1368 1369 1370
1449 1448 1448 1447 1445 1445 1444 1443 1441 1440 1437 1435 1433 1430 1428 1424 1420 1416 1413 1410 1407 1405 1402 1399 1396 1391 1388 1384 1379 1375 1372 1369 1367 1365 1366 1365 1366 1367
1442 1441 1440 1440 1439 1439 1438 1437 1436 1435 1433 1431 1429 1426 1424 1420 1417 1413 1409 1406 1402 1399 1398 1395 1393 1389 1384 1382 1378 1375 1372 1369 1367 1366 1365 1366 1366 1365
1434 1433 1432 1432 1431 1431 1431 1430 1429 1429 1427 1426 1424 1422 1420 1416 1413 1409 1406 1403 1400 1396 1392 1390 1389 1386 1383 1379 1376 1374 1369 1365 1366 1366 1366 1365 1365 1365
1426 1425 1424 1425 1424 1424 1423 1422 1423 1423 1422 1421 1420 1418 1416 1412 1409 1406 1404 1401 1397 1394 1391 1388 1386 1383 1381 1379 1377 1374 1371 1368 1367 1367 1367 1366 1364 1364
1419 1418 1417 1417 1416 1417 1416 1416 1416 1417 1417 1416 1415 1414 1411 1408 1406 1403 1401 1398 1395 1392 1390 1387 1384 1382 1380 1378 1377 1375 1372 1371 1369 1368 1367 1367 1366 1365
1412 1411 1410 1409 1409 1409 1410 1410 1410 1411 1411 1411 1410 1409 1407 1405 1403 1400 1398 1396 1393 1390 1387 1384 1382 1381 1379 1378 1376 1375 1373 1372 1371 1370 1369 1369 1368 1368
1404 1403 1403 1402 1402 1402 1403 1403 1404 1405 1405 1405 1405 1404 1403 1401 1399 1398 1396 1394 1391 1388 1385 1382 1381 1379 1377 1376 1375 1374 1373 1372 1371 1371 1370 1370 1370 1369
1396 1395 1395 1395 1395 1395 1396 1397 1398 1399 1399 1400 1400 1399 1398 1397 1396 1395 1393 1391 1389 1387 1384 1382 1380 1378 1376 1375 1374 1374 1373 1373 1372 1371 1371 1370 1370 1371
1388 1388 1388 1387 1388 1388 1389 1389 1391 1392 1393 1394 1395 1394 1394 1393 1392 1392 1391 1389 1388 1385 1383 1381 1380 1378 1377 1376 1375 1375 1374 1374 1374 1373 1372 1372 1371 1371